| time (UTC) | temp F | wind direction | speed knots | gust knots | rain 1hr in | rain 24hr in | rain mn in | humidity % | barometer mb |
| 20260505235518 | 53 | 0 | 0.0 | 0.9 | 0.00 | 0.28 | 0.08 | 64 | 1010.3 |
| 20260505235018 | 53 | 323 | 0.0 | 2.6 | 0.00 | 0.28 | 0.08 | 61 | 1010.2 |
| 20260505234534 | 53 | 0 | 0.0 | 2.6 | 0.00 | 0.28 | 0.08 | 61 | 1010.3 |
| 20260505234018 | 53 | 276 | 0.0 | 1.7 | 0.00 | 0.28 | 0.08 | 59 | 1010.2 |
| 20260505233517 | 53 | 269 | 0.9 | 1.7 | 0.00 | 0.28 | 0.08 | 57 | 1010.3 |
| 20260505233030 | 53 | 325 | 0.0 | 2.6 | 0.00 | 0.28 | 0.08 | 58 | 1010.2 |
| 20260505232517 | 53 | 0 | 0.0 | 2.6 | 0.00 | 0.28 | 0.08 | 60 | 1010.2 |
| 20260505232017 | 53 | 288 | 0.9 | 4.3 | 0.00 | 0.28 | 0.08 | 57 | 1010.3 |
| 20260505231531 | 53 | 71 | 0.9 | 4.3 | 0.00 | 0.28 | 0.08 | 57 | 1010.2 |
| 20260505231018 | 53 | 279 | 0.0 | 3.5 | 0.00 | 0.28 | 0.08 | 59 | 1010.1 |
| 20260505230517 | 53 | 0 | 0.9 | 3.5 | 0.00 | 0.28 | 0.08 | 57 | 1010.2 |
| 20260505230042 | 54 | 278 | 0.9 | 6.1 | 0.00 | 0.28 | 0.08 | 59 | 1010.1 |
| 20260505225518 | 54 | 62 | 0.9 | 6.1 | 0.00 | 0.28 | 0.08 | 58 | 1010.1 |
| 20260505225020 | 54 | 302 | 1.7 | 6.1 | 0.00 | 0.28 | 0.08 | 56 | 1010.2 |
| 20260505224537 | 54 | 332 | 1.7 | 5.2 | 0.00 | 0.28 | 0.08 | 56 | 1010.2 |
| 20260505224018 | 54 | 330 | 0.9 | 3.5 | 0.00 | 0.28 | 0.08 | 61 | 1010.3 |
| 20260505223517 | 54 | 305 | 0.0 | 2.6 | 0.00 | 0.28 | 0.08 | 60 | 1010.4 |
| 20260505223038 | 54 | 209 | 0.0 | 4.3 | 0.00 | 0.28 | 0.08 | 60 | 1010.5 |
| 20260505222518 | 53 | 258 | 0.9 | 4.3 | 0.00 | 0.28 | 0.08 | 57 | 1010.4 |
| 20260505222018 | 54 | 292 | 1.7 | 4.3 | 0.00 | 0.28 | 0.08 | 58 | 1010.4 |
| 20260505221530 | 53 | 78 | 0.9 | 3.5 | 0.00 | 0.28 | 0.08 | 58 | 1010.2 |
| 20260505221018 | 53 | 285 | 0.9 | 4.3 | 0.00 | 0.28 | 0.08 | 59 | 1010.3 |
| 20260505220517 | 53 | 266 | 0.9 | 4.3 | 0.00 | 0.28 | 0.08 | 60 | 1010.3 |
| 20260505220032 | 53 | 314 | 0.0 | 4.3 | 0.00 | 0.28 | 0.08 | 59 | 1010.4 |
| 20260505215519 | 53 | 291 | 0.0 | 4.3 | 0.00 | 0.28 | 0.08 | 59 | 1010.7 |
| 20260505215017 | 53 | 288 | 0.9 | 2.6 | 0.00 | 0.28 | 0.08 | 59 | 1010.7 |
| 20260505214537 | 53 | 0 | 0.0 | 3.5 | 0.00 | 0.28 | 0.08 | 60 | 1010.6 |
| 20260505214017 | 53 | 297 | 0.9 | 3.5 | 0.00 | 0.28 | 0.08 | 59 | 1010.4 |
| 20260505213517 | 53 | 13 | 0.0 | 2.6 | 0.00 | 0.28 | 0.08 | 60 | 1010.4 |
| 20260505213033 | 53 | 0 | 0.0 | 2.6 | 0.00 | 0.28 | 0.08 | 59 | 1010.6 |
| 20260505212518 | 53 | 0 | 0.0 | 1.7 | 0.00 | 0.28 | 0.08 | 62 | 1010.8 |
| 20260505212018 | 53 | 67 | 0.0 | 3.5 | 0.00 | 0.28 | 0.08 | 62 | 1010.6 |
| 20260505211550 | 52 | 330 | 0.0 | 3.5 | 0.00 | 0.28 | 0.08 | 64 | 1010.6 |
| 20260505211018 | 52 | 58 | 0.9 | 2.6 | 0.00 | 0.28 | 0.08 | 60 | 1010.7 |
| 20260505210517 | 53 | 63 | 0.9 | 2.6 | 0.00 | 0.28 | 0.08 | 62 | 1010.8 |
| 20260505210032 | 53 | 326 | 0.0 | 0.9 | 0.00 | 0.28 | 0.08 | 66 | 1010.8 |
| 20260505205522 | 53 | 0 | 0.0 | 1.7 | 0.00 | 0.28 | 0.08 | 69 | 1010.6 |
| 20260505205020 | 53 | 0 | 0.0 | 1.7 | 0.00 | 0.28 | 0.08 | 69 | 1010.6 |
| 20260505204546 | 52 | 287 | 0.9 | 2.6 | 0.00 | 0.28 | 0.08 | 66 | 1010.7 |
| 20260505204019 | 53 | 68 | 0.0 | 2.6 | 0.01 | 0.28 | 0.08 | 69 | 1010.8 |
| 20260505203518 | 53 | 96 | 0.9 | 2.6 | 0.01 | 0.28 | 0.08 | 71 | 1010.9 |
| 20260505203031 | 53 | 131 | 0.0 | 1.7 | 0.01 | 0.28 | 0.08 | 71 | 1011.0 |
| 20260505202517 | 52 | 131 | 0.0 | 1.7 | 0.01 | 0.28 | 0.08 | 70 | 1010.8 |
| 20260505202019 | 52 | 0 | 0.0 | 0.9 | 0.01 | 0.28 | 0.08 | 70 | 1011.0 |
| 20260505201538 | 52 | 0 | 0.0 | 0.9 | 0.01 | 0.28 | 0.08 | 74 | 1011.1 |
| 20260505201018 | 51 | 320 | 0.0 | 0.9 | 0.01 | 0.28 | 0.08 | 70 | 1011.1 |
| 20260505200518 | 51 | 0 | 0.0 | 1.7 | 0.01 | 0.28 | 0.08 | 68 | 1011.1 |
| 20260505200032 | 51 | 235 | 0.9 | 1.7 | 0.01 | 0.28 | 0.08 | 68 | 1011.2 |
| 20260505195517 | 51 | 28 | 0.0 | 2.6 | 0.01 | 0.28 | 0.08 | 70 | 1011.2 |
| 20260505195017 | 51 | 329 | 0.0 | 2.6 | 0.01 | 0.28 | 0.08 | 68 | 1011.2 |
| 20260505194535 | 51 | 67 | 0.0 | 2.6 | 0.00 | 0.27 | 0.07 | 66 | 1011.5 |
| 20260505194021 | 51 | 77 | 0.9 | 2.6 | 0.00 | 0.27 | 0.07 | 65 | 1011.6 |
| 20260505193519 | 51 | 350 | 0.9 | 2.6 | 0.00 | 0.27 | 0.07 | 66 | 1011.6 |
| 20260505193029 | 51 | 161 | 0.9 | 4.3 | 0.00 | 0.27 | 0.07 | 65 | 1011.9 |
| 20260505192518 | 51 | 335 | 0.9 | 4.3 | 0.00 | 0.27 | 0.07 | 66 | 1011.7 |
| 20260505192018 | 51 | 87 | 1.7 | 3.5 | 0.00 | 0.27 | 0.07 | 63 | 1011.9 |
| 20260505191535 | 51 | 64 | 0.9 | 5.2 | 0.01 | 0.27 | 0.07 | 68 | 1011.9 |
| 20260505191018 | 51 | 297 | 0.9 | 5.2 | 0.01 | 0.27 | 0.07 | 72 | 1011.8 |
| 20260505190516 | 51 | 306 | 1.7 | 5.2 | 0.01 | 0.27 | 0.07 | 70 | 1011.9 |
| 20260505190033 | 51 | 288 | 1.7 | 4.3 | 0.01 | 0.27 | 0.07 | 69 | 1011.8 |
| 20260505185517 | 51 | 29 | 0.9 | 3.5 | 0.02 | 0.27 | 0.07 | 69 | 1011.9 |
| 20260505185016 | 50 | 308 | 0.9 | 3.5 | 0.02 | 0.27 | 0.07 | 70 | 1011.9 |
| 20260505184538 | 50 | 0 | 0.0 | 1.7 | 0.03 | 0.27 | 0.07 | 71 | 1011.9 |
| 20260505184018 | 50 | 268 | 0.0 | 0.9 | 0.03 | 0.27 | 0.07 | 73 | 1011.9 |
| 20260505183521 | 50 | 0 | 0.0 | 2.6 | 0.04 | 0.27 | 0.07 | 78 | 1011.9 |
| 20260505183032 | 50 | 307 | 0.9 | 2.6 | 0.04 | 0.27 | 0.07 | 76 | 1012.0 |
| 20260505182517 | 49 | 0 | 0.0 | 0.9 | 0.05 | 0.27 | 0.07 | 76 | 1011.9 |
| 20260505182022 | 49 | 0 | 0.0 | 0.9 | 0.05 | 0.27 | 0.07 | 75 | 1012.0 |
| 20260505181537 | 49 | 0 | 0.0 | 0.9 | 0.05 | 0.26 | 0.06 | 79 | 1012.1 |
| 20260505181016 | 49 | 0 | 0.0 | 0.9 | 0.05 | 0.26 | 0.06 | 76 | 1012.1 |
| 20260505180517 | 49 | 0 | 0.0 | 0.9 | 0.05 | 0.26 | 0.06 | 76 | 1012.2 |
| 20260505180033 | 49 | 77 | 0.0 | 2.6 | 0.04 | 0.25 | 0.05 | 75 | 1012.1 |
| 20260505175514 | 49 | 287 | 0.0 | 2.6 | 0.04 | 0.25 | 0.05 | 75 | 1012.1 |
| 20260505175017 | 50 | 0 | 0.0 | 0.9 | 0.04 | 0.25 | 0.05 | 74 | 1012.2 |
| 20260505174537 | 50 | 0 | 0.0 | 0.9 | 0.03 | 0.24 | 0.04 | 72 | 1012.3 |
| 20260505174015 | 50 | 107 | 0.0 | 1.7 | 0.03 | 0.24 | 0.04 | 74 | 1012.4 |
| 20260505173515 | 50 | 0 | 0.0 | 5.2 | 0.02 | 0.23 | 0.03 | 71 | 1012.4 |
| 20260505173031 | 51 | 263 | 0.0 | 5.2 | 0.02 | 0.23 | 0.03 | 67 | 1012.4 |
| 20260505172519 | 51 | 327 | 0.9 | 5.2 | 0.01 | 0.22 | 0.02 | 67 | 1012.4 |
| 20260505172015 | 51 | 0 | 0.0 | 3.5 | 0.01 | 0.22 | 0.02 | 66 | 1012.2 |
| 20260505171537 | 52 | 285 | 0.9 | 3.5 | 0.00 | 0.21 | 0.01 | 63 | 1012.0 |
| 20260505171016 | 52 | 299 | 0.9 | 3.5 | 0.00 | 0.21 | 0.01 | 64 | 1011.8 |
| 20260505170515 | 52 | 345 | 0.0 | 2.6 | 0.00 | 0.21 | 0.01 | 63 | 1011.8 |
| 20260505170030 | 52 | 292 | 0.9 | 2.6 | 0.00 | 0.21 | 0.01 | 64 | 1011.9 |
| 20260505165514 | 53 | 300 | 0.9 | 2.6 | 0.00 | 0.21 | 0.01 | 62 | 1011.7 |
| 20260505165021 | 53 | 58 | 1.7 | 4.3 | 0.00 | 0.21 | 0.01 | 59 | 1011.8 |
| 20260505164533 | 53 | 300 | 1.7 | 4.3 | 0.00 | 0.21 | 0.01 | 57 | 1011.6 |
| 20260505164015 | 53 | 342 | 0.9 | 3.5 | 0.00 | 0.21 | 0.01 | 57 | 1011.7 |
| 20260505163517 | 53 | 94 | 0.9 | 5.2 | 0.00 | 0.21 | 0.01 | 57 | 1011.8 |
| 20260505163032 | 53 | 269 | 1.7 | 5.2 | 0.00 | 0.21 | 0.01 | 58 | 1011.7 |
| 20260505162515 | 53 | 346 | 1.7 | 5.2 | 0.00 | 0.21 | 0.01 | 59 | 1011.7 |
| 20260505162018 | 53 | 53 | 0.9 | 4.3 | 0.00 | 0.21 | 0.01 | 58 | 1011.6 |
| 20260505161532 | 53 | 18 | 0.9 | 3.5 | 0.00 | 0.21 | 0.01 | 58 | 1011.4 |
| 20260505161015 | 53 | 281 | 1.7 | 3.5 | 0.00 | 0.21 | 0.01 | 58 | 1011.5 |
| 20260505160521 | 52 | 283 | 0.0 | 2.6 | 0.00 | 0.21 | 0.01 | 60 | 1011.5 |
| 20260505153040 | 53 | 252 | 0.9 | 6.1 | 0.00 | 0.21 | 0.01 | 57 | 1010.5 |
| 20260505152517 | 53 | 302 | 1.7 | 6.1 | 0.00 | 0.21 | 0.01 | 56 | 1010.5 |
| 20260505152015 | 53 | 38 | 0.9 | 4.3 | 0.00 | 0.21 | 0.01 | 57 | 1010.3 |
| 20260505151532 | 52 | 81 | 0.9 | 4.3 | 0.00 | 0.21 | 0.01 | 58 | 1010.4 |
| 20260505151016 | 52 | 49 | 0.9 | 4.3 | 0.00 | 0.21 | 0.01 | 58 | 1010.2 |
| 20260505150519 | 52 | 36 | 1.7 | 4.3 | 0.00 | 0.21 | 0.01 | 56 | 1010.2 |
| 20260505140515 | 50 | 89 | 1.7 | 4.3 | 0.00 | 0.22 | 0.01 | 61 | 1010.3 |
| 20260505125015 | 49 | 85 | 0.9 | 4.3 | 0.00 | 0.22 | 0.01 | 65 | 1010.3 |
| 20260505124534 | 49 | 197 | 0.9 | 6.1 | 0.00 | 0.22 | 0.01 | 64 | 1010.6 |
| 20260505124016 | 49 | 38 | 2.6 | 7.0 | 0.00 | 0.22 | 0.01 | 64 | 1010.8 |
| 20260505123517 | 49 | 16 | 2.6 | 7.0 | 0.00 | 0.22 | 0.01 | 64 | 1010.8 |
| 20260505123045 | 50 | 244 | 1.7 | 5.2 | 0.00 | 0.22 | 0.01 | 63 | 1010.7 |
| 20260505122518 | 50 | 124 | 1.7 | 5.2 | 0.00 | 0.22 | 0.01 | 61 | 1010.6 |
| 20260505122018 | 50 | 113 | 1.7 | 5.2 | 0.00 | 0.22 | 0.01 | 60 | 1010.7 |
| 20260505121532 | 51 | 299 | 1.7 | 5.2 | 0.00 | 0.22 | 0.01 | 59 | 1010.7 |
| 20260505121018 | 51 | 94 | 2.6 | 5.2 | 0.00 | 0.22 | 0.01 | 58 | 1010.7 |
| 20260505120518 | 51 | 319 | 1.7 | 3.5 | 0.00 | 0.22 | 0.01 | 58 | 1010.6 |
| 20260505120037 | 51 | 304 | 0.9 | 4.3 | 0.00 | 0.22 | 0.01 | 58 | 1010.3 |
| 20260505115517 | 52 | 354 | 0.9 | 5.2 | 0.00 | 0.22 | 0.01 | 56 | 1010.2 |
| 20260505115017 | 52 | 79 | 2.6 | 7.0 | 0.00 | 0.22 | 0.01 | 56 | 1010.1 |
| 20260505114531 | 52 | 342 | 2.6 | 7.0 | 0.00 | 0.22 | 0.01 | 57 | 1010.2 |
| 20260505114016 | 52 | 13 | 1.7 | 5.2 | 0.00 | 0.22 | 0.01 | 59 | 1010.2 |
| 20260505113516 | 52 | 240 | 1.7 | 6.1 | 0.00 | 0.22 | 0.01 | 58 | 1010.1 |
| 20260505113029 | 52 | 65 | 1.7 | 6.1 | 0.00 | 0.22 | 0.01 | 59 | 1010.1 |
| 20260505112519 | 52 | 309 | 0.0 | 3.5 | 0.00 | 0.22 | 0.01 | 61 | 1010.3 |
| 20260505112014 | 52 | 0 | 0.0 | 3.5 | 0.00 | 0.22 | 0.01 | 58 | 1010.4 |
| 20260505111535 | 52 | 293 | 0.9 | 3.5 | 0.00 | 0.22 | 0.01 | 58 | 1010.6 |
| 20260505111017 | 52 | 285 | 0.9 | 2.6 | 0.00 | 0.22 | 0.01 | 59 | 1010.4 |
| 20260505110515 | 52 | 271 | 0.0 | 1.7 | 0.00 | 0.22 | 0.01 | 58 | 1010.4 |
| 20260505102017 | 52 | 231 | 2.6 | 7.8 | 0.00 | 0.22 | 0.01 | 57 | 1009.1 |
| 20260505101532 | 52 | 321 | 2.6 | 7.8 | 0.00 | 0.22 | 0.01 | 58 | 1009.1 |
| 20260505101017 | 53 | 77 | 1.7 | 6.1 | 0.00 | 0.22 | 0.01 | 62 | 1008.7 |
| 20260505100515 | 53 | 88 | 1.7 | 7.8 | 0.00 | 0.22 | 0.01 | 61 | 1008.8 |
| 20260505100034 | 53 | 51 | 1.7 | 7.8 | 0.00 | 0.22 | 0.01 | 59 | 1008.6 |
| 20260505095520 | 53 | 38 | 2.6 | 7.8 | 0.00 | 0.22 | 0.01 | 59 | 1008.6 |
| 20260505095017 | 53 | 65 | 1.7 | 6.1 | 0.00 | 0.22 | 0.01 | 61 | 1008.5 |
| 20260505094532 | 53 | 37 | 1.7 | 5.2 | 0.00 | 0.22 | 0.01 | 64 | 1008.5 |
| 20260505094015 | 53 | 270 | 0.9 | 3.5 | 0.00 | 0.22 | 0.01 | 65 | 1008.6 |
| 20260505093517 | 53 | 337 | 0.9 | 3.5 | 0.00 | 0.22 | 0.01 | 65 | 1008.5 |
| 20260505093031 | 53 | 287 | 0.9 | 3.5 | 0.00 | 0.22 | 0.01 | 61 | 1008.6 |
| 20260505092519 | 53 | 8 | 0.9 | 3.5 | 0.00 | 0.22 | 0.01 | 62 | 1008.8 |
| 20260505092018 | 53 | 0 | 0.9 | 5.2 | 0.00 | 0.22 | 0.01 | 62 | 1008.6 |
| 20260505091531 | 53 | 0 | 0.0 | 5.2 | 0.00 | 0.22 | 0.01 | 61 | 1008.7 |
| 20260505091017 | 53 | 100 | 1.7 | 5.2 | 0.01 | 0.22 | 0.01 | 62 | 1008.2 |
| 20260505090517 | 53 | 32 | 1.7 | 5.2 | 0.01 | 0.22 | 0.01 | 62 | 1008.1 |
| 20260505090037 | 53 | 104 | 1.7 | 5.2 | 0.01 | 0.22 | 0.01 | 61 | 1007.9 |
| 20260505085515 | 53 | 354 | 1.7 | 5.2 | 0.01 | 0.29 | 0.01 | 64 | 1007.8 |
| 20260505085015 | 53 | 77 | 1.7 | 3.5 | 0.01 | 0.29 | 0.01 | 72 | 1007.6 |
| 20260505084536 | 53 | 290 | 0.9 | 2.6 | 0.01 | 0.29 | 0.01 | 67 | 1008.0 |
| 20260505084015 | 53 | 318 | 0.9 | 2.6 | 0.01 | 0.29 | 0.01 | 68 | 1007.9 |
| 20260505083519 | 53 | 0 | 0.0 | 2.6 | 0.01 | 0.29 | 0.01 | 68 | 1007.9 |
| 20260505083037 | 53 | 296 | 0.0 | 2.6 | 0.01 | 0.29 | 0.01 | 69 | 1007.6 |
| 20260505082520 | 53 | 24 | 0.9 | 2.6 | 0.01 | 0.29 | 0.01 | 70 | 1007.4 |
| 20260505082018 | 53 | 347 | 0.9 | 6.1 | 0.01 | 0.29 | 0.01 | 70 | 1007.5 |
| 20260505081533 | 52 | 337 | 1.7 | 6.1 | 0.01 | 0.29 | 0.01 | 71 | 1007.5 |
| 20260505081019 | 51 | 276 | 0.9 | 2.6 | 0.00 | 0.28 | 0.00 | 77 | 1007.2 |
| 20260505080520 | 51 | 287 | 0.0 | 0.9 | 0.00 | 0.28 | 0.00 | 85 | 1007.1 |
| 20260505080030 | 51 | 0 | 0.0 | 0.0 | 0.00 | 0.28 | 0.00 | 85 | 1007.1 |
| 20260505075515 | 51 | 0 | 0.0 | 0.9 | 0.00 | 0.28 | 0.00 | 85 | 1007.2 |
| 20260505075017 | 51 | 0 | 0.0 | 0.9 | 0.00 | 0.28 | 0.00 | 85 | 1007.3 |
| 20260505074534 | 51 | 0 | 0.0 | 0.9 | 0.00 | 0.28 | 0.00 | 84 | 1007.3 |
| 20260505074015 | 51 | 112 | 0.0 | 0.9 | 0.00 | 0.28 | 0.00 | 81 | 1007.1 |
| 20260505073518 | 52 | 0 | 0.0 | 0.9 | 0.00 | 0.28 | 0.00 | 83 | 1007.0 |
| 20260505073035 | 52 | 253 | 0.0 | 0.9 | 0.00 | 0.28 | 0.00 | 84 | 1006.7 |
| 20260505072517 | 52 | 0 | 0.0 | 0.9 | 0.00 | 0.28 | 0.00 | 84 | 1006.2 |
| 20260505072015 | 52 | 0 | 0.0 | 0.9 | 0.00 | 0.28 | 0.00 | 82 | 1006.4 |
| 20260505071531 | 52 | 0 | 0.0 | 0.0 | 0.00 | 0.28 | 0.00 | 84 | 1006.3 |
| 20260505071017 | 53 | 0 | 0.0 | 0.0 | 0.00 | 0.28 | 0.00 | 83 | 1006.3 |
| 20260505070522 | 53 | 204 | 0.0 | 0.0 | 0.00 | 0.28 | 0.00 | 83 | 1006.2 |
| 20260505070031 | 53 | 0 | 0.0 | 0.0 | 0.00 | 0.28 | 0.00 | 83 | 1006.2 |
| 20260505065515 | 53 | 204 | 0.0 | 0.9 | 0.00 | 0.28 | 0.00 | 84 | 1006.3 |
| 20260505065016 | 53 | 204 | 0.0 | 0.9 | 0.00 | 0.28 | 0.00 | 84 | 1006.2 |
| 20260505064537 | 53 | 0 | 0.0 | 0.9 | 0.00 | 0.28 | 0.00 | 84 | 1006.0 |
| 20260505064014 | 54 | 0 | 0.0 | 0.0 | 0.00 | 0.28 | 0.00 | 84 | 1006.0 |
| 20260505063517 | 54 | 0 | 0.0 | 0.9 | 0.00 | 0.28 | 0.00 | 83 | 1006.0 |
| 20260505063031 | 54 | 0 | 0.0 | 0.9 | 0.00 | 0.28 | 0.00 | 83 | 1005.9 |
| 20260505062514 | 55 | 96 | 0.0 | 0.9 | 0.00 | 0.28 | 0.00 | 83 | 1005.7 |
| 20260505062016 | 55 | 0 | 0.0 | 0.0 | 0.00 | 0.28 | 0.00 | 82 | 1005.6 |
| 20260505061531 | 56 | 0 | 0.0 | 0.0 | 0.00 | 0.28 | 0.00 | 81 | 1005.6 |
| 20260505061014 | 56 | 0 | 0.0 | 0.9 | 0.00 | 0.28 | 0.00 | 81 | 1005.6 |
| 20260505060517 | 56 | 0 | 0.0 | 0.9 | 0.00 | 0.28 | 0.00 | 79 | 1005.5 |
| 20260505060031 | 57 | 0 | 0.0 | 0.9 | 0.00 | 0.28 | 0.00 | 79 | 1005.5 |
| 20260505055517 | 57 | 0 | 0.0 | 1.7 | 0.00 | 0.28 | 0.00 | 78 | 1005.3 |
| 20260505055014 | 57 | 0 | 0.0 | 1.7 | 0.00 | 0.28 | 0.00 | 79 | 1005.1 |
| 20260505054545 | 57 | 75 | 0.9 | 1.7 | 0.00 | 0.28 | 0.00 | 78 | 1004.8 |
| 20260505054016 | 57 | 103 | 0.0 | 1.7 | 0.00 | 0.28 | 0.00 | 80 | 1004.7 |
| 20260505053516 | 58 | 0 | 0.0 | 3.5 | 0.00 | 0.28 | 0.00 | 82 | 1004.9 |
| 20260505053030 | 58 | 5 | 0.9 | 3.5 | 0.00 | 0.28 | 0.00 | 81 | 1004.5 |
| 20260505052516 | 58 | 309 | 0.9 | 2.6 | 0.00 | 0.28 | 0.00 | 83 | 1004.5 |
| 20260505052014 | 58 | 49 | 0.0 | 2.6 | 0.00 | 0.28 | 0.00 | 84 | 1004.2 |
| 20260505051530 | 58 | 308 | 0.0 | 0.9 | 0.00 | 0.28 | 0.00 | 84 | 1004.1 |
| 20260505051018 | 58 | 0 | 0.0 | 0.9 | 0.00 | 0.28 | 0.00 | 84 | 1004.1 |
| 20260505050518 | 58 | 39 | 0.0 | 0.9 | 0.00 | 0.28 | 0.00 | 84 | 1004.1 |
| 20260505041531 | 60 | 0 | 0.0 | 0.9 | 0.20 | 0.28 | 0.28 | 85 | 1003.0 |
| 20260505041016 | 60 | 219 | 0.0 | 2.6 | 0.20 | 0.28 | 0.28 | 85 | 1002.8 |
| 20260505040515 | 60 | 103 | 0.0 | 2.6 | 0.20 | 0.28 | 0.28 | 84 | 1002.6 |
| 20260505040032 | 61 | 95 | 1.7 | 3.5 | 0.20 | 0.28 | 0.28 | 83 | 1002.7 |
| 20260505035516 | 61 | 117 | 1.7 | 3.5 | 0.20 | 0.28 | 0.28 | 83 | 1002.6 |
| 20260505035016 | 62 | 59 | 1.7 | 2.6 | 0.20 | 0.28 | 0.28 | 80 | 1002.8 |
| 20260505034538 | 63 | 90 | 0.9 | 8.7 | 0.19 | 0.27 | 0.27 | 75 | 1002.7 |
| 20260505034016 | 67 | 110 | 1.7 | 8.7 | 0.17 | 0.25 | 0.25 | 68 | 1001.8 |
| 20260505033516 | 68 | 30 | 3.5 | 9.6 | 0.00 | 0.08 | 0.08 | 58 | 1002.4 |
| 20260505033032 | 68 | 286 | 3.5 | 9.6 | 0.00 | 0.08 | 0.08 | 58 | 1001.7 |
| 20260505032516 | 67 | 231 | 2.6 | 9.6 | 0.00 | 0.08 | 0.08 | 64 | 1001.6 |
| 20260505032017 | 67 | 46 | 0.9 | 7.0 | 0.00 | 0.08 | 0.08 | 69 | 1001.6 |
| 20260505031532 | 66 | 33 | 2.6 | 5.2 | 0.00 | 0.08 | 0.08 | 71 | 1001.1 |
| 20260505031016 | 66 | 23 | 0.9 | 1.7 | 0.00 | 0.08 | 0.08 | 72 | 1001.0 |
| 20260505030517 | 66 | 139 | 0.0 | 1.7 | 0.00 | 0.08 | 0.08 | 70 | 1000.7 |
| 20260505030044 | 66 | 187 | 0.0 | 0.9 | 0.00 | 0.08 | 0.08 | 71 | 1000.9 |
| 20260505025517 | 66 | 160 | 0.0 | 1.7 | 0.00 | 0.08 | 0.08 | 71 | 1000.9 |
| 20260505025016 | 66 | 0 | 0.0 | 1.7 | 0.00 | 0.08 | 0.08 | 71 | 1001.0 |
| 20260505024531 | 66 | 103 | 0.0 | 1.7 | 0.00 | 0.08 | 0.08 | 72 | 1000.8 |
| 20260505024016 | 66 | 138 | 0.9 | 1.7 | 0.00 | 0.08 | 0.08 | 72 | 1000.9 |
| 20260505023516 | 66 | 124 | 0.9 | 1.7 | 0.00 | 0.08 | 0.08 | 72 | 1001.0 |
| 20260505023039 | 66 | 139 | 0.0 | 0.9 | 0.00 | 0.08 | 0.08 | 73 | 1000.9 |
| 20260505022516 | 66 | 138 | 0.0 | 1.7 | 0.00 | 0.08 | 0.08 | 74 | 1000.9 |
| 20260505022017 | 65 | 123 | 0.9 | 1.7 | 0.00 | 0.08 | 0.08 | 74 | 1000.7 |
| 20260505021533 | 66 | 118 | 0.9 | 0.9 | 0.00 | 0.08 | 0.08 | 75 | 1001.0 |
| 20260505021019 | 66 | 0 | 0.0 | 0.9 | 0.00 | 0.08 | 0.08 | 74 | 1000.9 |
| 20260505020516 | 66 | 108 | 0.0 | 0.9 | 0.00 | 0.08 | 0.08 | 74 | 1000.8 |
| 20260505020034 | 67 | 109 | 0.9 | 0.9 | 0.00 | 0.08 | 0.08 | 73 | 1000.8 |
| 20260505015516 | 67 | 116 | 0.9 | 0.9 | 0.00 | 0.08 | 0.08 | 72 | 1000.7 |
| 20260505015017 | 67 | 119 | 0.9 | 0.9 | 0.00 | 0.08 | 0.08 | 71 | 1000.7 |
| 20260505014537 | 67 | 142 | 0.0 | 0.9 | 0.00 | 0.08 | 0.08 | 70 | 1000.6 |
| 20260505014016 | 68 | 139 | 0.0 | 0.9 | 0.00 | 0.08 | 0.08 | 70 | 1000.5 |
| 20260505013517 | 68 | 139 | 0.0 | 0.9 | 0.00 | 0.08 | 0.08 | 70 | 1000.4 |
| 20260505013038 | 68 | 138 | 0.0 | 0.9 | 0.00 | 0.08 | 0.08 | 70 | 1000.4 |
| 20260505012516 | 68 | 138 | 0.0 | 0.9 | 0.00 | 0.08 | 0.08 | 69 | 1000.4 |
| 20260505012017 | 68 | 0 | 0.0 | 0.9 | 0.00 | 0.08 | 0.08 | 69 | 1000.4 |
| 20260505011532 | 69 | 138 | 0.0 | 0.9 | 0.00 | 0.08 | 0.08 | 68 | 1000.3 |
| 20260505011016 | 69 | 139 | 0.9 | 0.9 | 0.00 | 0.08 | 0.08 | 68 | 1000.2 |
| 20260505010516 | 70 | 0 | 0.0 | 0.9 | 0.00 | 0.08 | 0.08 | 67 | 1000.3 |
| 20260505010032 | 70 | 108 | 0.0 | 0.9 | 0.00 | 0.08 | 0.08 | 66 | 1000.4 |
| 20260505005517 | 71 | 108 | 0.0 | 0.9 | 0.00 | 0.08 | 0.08 | 65 | 1000.2 |
| 20260505005016 | 71 | 103 | 0.0 | 1.7 | 0.00 | 0.08 | 0.08 | 65 | 1000.0 |
| 20260505004554 | 72 | 103 | 0.0 | 1.7 | 0.00 | 0.08 | 0.08 | 63 | 1000.0 |
| 20260505004015 | 73 | 148 | 0.0 | 1.7 | 0.00 | 0.08 | 0.08 | 61 | 1000.0 |
| 20260505003518 | 73 | 148 | 0.0 | 1.7 | 0.00 | 0.08 | 0.08 | 61 | 1000.2 |
| 20260505003031 | 74 | 118 | 0.0 | 0.9 | 0.00 | 0.08 | 0.08 | 60 | 1000.1 |
| 20260505002515 | 75 | 203 | 0.0 | 0.9 | 0.00 | 0.08 | 0.08 | 59 | 1000.1 |
| 20260505002016 | 75 | 0 | 0.0 | 0.9 | 0.00 | 0.08 | 0.08 | 58 | 1000.2 |
| 20260505001536 | 76 | 280 | 0.0 | 0.9 | 0.00 | 0.08 | 0.08 | 57 | 1000.2 |
| 20260505001015 | 76 | 20 | 0.0 | 3.5 | 0.00 | 0.08 | 0.08 | 56 | 1000.1 |
| 20260505000519 | 77 | 0 | 0.0 | 3.5 | 0.00 | 0.08 | 0.08 | 55 | 1000.1 |
| 20260505000037 | 77 | 118 | 0.9 | 3.5 | 0.00 | 0.08 | 0.08 | 55 | 1000.3 |